Regional Weather Roundup
Issued by NWS Upton, NY

Current Version | Previous Version | Text Only | Print | Product List | Glossary On
Versions: 1 2 3 4 5 6 7 8 9 10 11 12 13 14 15 16 17 18 19 20 21 22 23 24 25 26 27 28 29 30 31 32 33 34 35 36 37 38 39 40 41 42 43 44 45 46 47 48 49 50
000
ASUS41 KOKX 181908
RWROKX

REGIONAL WEATHER ROUNDUP
NATIONAL WEATHER SERVICE NEW YORK NY
300 PM EDT SAT APR 18 2015

NOTE: "FAIR" INDICATES FEW OR NO CLOUDS BELOW 12,000 FEET WITH NO
SIGNIFICANT WEATHER AND/OR OBSTRUCTIONS TO VISIBILITY.

NYZ071-072-176-178-NJZ106-104-182000-
NEW YORK CITY METRO AREA


CITY           SKY/WX    TMP DP  RH WIND       PRES   REMARKS
CENTRAL PARK   MOSUNNY   77  37  23 MISG      29.91F
LAGUARDIA APRT PTSUNNY   77  38  24 W8G17     29.88F
KENNEDY INTL   PTSUNNY   69  45  41 S15       29.91F
NEWARK/LIBERTY PTSUNNY   80  40  23 W15G23    29.88F
BRNX BOT. GARD   N/A     77  39  25 SW12      29.90F
TETERBORO      MOSUNNY   78  42  27 W13G23    29.87F
$$

NYZ177-179-078>081-182000-
LONG ISLAND NEW YORK

CITY           SKY/WX    TMP DP  RH WIND       PRES   REMARKS
FARMINGDALE    MOSUNNY   72  45  37 SW15      29.90F
ISLIP          PTSUNNY   73  45  36 S15G23    29.88F
SHIRLEY        MOSUNNY   71  46  40 S14       29.90F
WESTHAMPTON    MOSUNNY   68  45  43 SW14G20   29.90F
MONTAUK POINT    N/A     67  45  45 S9        29.89F
$$

NYZ052-065-067-182000-
HUDSON VALLEY

CITY           SKY/WX    TMP DP  RH WIND       PRES   REMARKS
WHITE PLAINS   MOSUNNY   76  39  26 NW13      29.87F
NEWBURGH       MOSUNNY   75  43  31 NW14G25   29.87F
MONTGOMERY     PTSUNNY   79  38  22 W17G24    29.85F
POUGHKEEPSIE   PTSUNNY   78  41  26 W13G22    29.84F
ALBANY         PTSUNNY   73  41  31 NW13      29.83F
$$

NJZ001-105-106-008-010-013-015-019>022-104-182000-
NEW JERSEY

CITY           SKY/WX    TMP DP  RH WIND       PRES   REMARKS
NEWARK/LIBERTY PTSUNNY   80  40  23 W15G23    29.88F
TETERBORO      MOSUNNY   78  42  27 W13G23    29.87F
CALDWELL       MOSUNNY   77  39  25 MISG      29.88F
MORRISTOWN     MOSUNNY   77  41  27 W17G23    29.89F
SOMERVILLE     MOSUNNY   78  40  25 S8        29.88F
SUSSEX         MOSUNNY   78  37  22 W13G26    29.89F
ANDOVER          N/A     77  34  21 VRB5G16   29.89F
TRENTON        MOSUNNY   79  38  22 NW13      29.91F
MILLVILLE      MOSUNNY   72  49  44 S8        29.95F
ATLANTIC CITY  SUNNY     70  44  39 S12G18    29.95F
WRIGHTSTOWN    SUNNY     78  40  25 VRB5      29.88F
TOMS RIVER     SUNNY     79  37  22 W9        29.91F
BELMAR         MOSUNNY   73  45  35 S9G17     29.91F
$$

PAZ047>061-062-071-182000-
EASTERN PENNSYLVANIA

CITY           SKY/WX    TMP DP  RH WIND       PRES   REMARKS
PHILADELPHIA   PTSUNNY   79  34  19 SW7       29.93F
ALLENTOWN      MOSUNNY   79  40  24 W15G24    29.91F
SCRANTON       MOSUNNY   80  38  22 W12G18    29.90F
$$

CTZ002-004>006-009-010-012-RIZ004-006-007-MAZ004-011-015-182000-
SOUTHERN NEW ENGLAND
 IN CT

CITY           SKY/WX    TMP DP  RH WIND       PRES   REMARKS
BRADLEY INTL   PTSUNNY   77  39  25 W16       29.82F
HARTFORD       MOSUNNY   76  38  25 W17G23    29.83F
DANBURY        SUNNY     74  38  27 NW9G21    29.88F
WTRBRY/OXFORD  MOSUNNY   73  41  31 W7G21     29.89F
BRIDGEPORT     SUNNY     73  43  33 SW17      29.87F
MERIDEN        MOSUNNY   76  37  24 W13       29.85F
NEW HAVEN      MOSUNNY   68  43  40 SW9       29.87F
CHESTER        FAIR      72  43  35 SW15G21   29.87F
GROTON         SUNNY     67  43  41 SW16G24   29.85F
WILLIMANTIC    MOSUNNY   74  39  28 NW10      29.84F

 IN RI

CITY           SKY/WX    TMP DP  RH WIND       PRES   REMARKS
PROVIDENCE     MOSUNNY   71  44  37 SE13G21   29.83F
BLOCK ISLAND   SUNNY     63  43  48 SW17G23   29.89F
WESTERLY       SUNNY     65  46  50 SW9       29.87F

 IN MA

CITY           SKY/WX    TMP DP  RH WIND       PRES   REMARKS
BOSTON         PTSUNNY   47  40  76 E10       29.88F
WORCESTER      PTSUNNY   69  36  29 NW10      29.84F
WESTFIELD      PTSUNNY   75  38  26 SW14      29.81F
PROVINCETOWN   SUNNY     52  39  62 E14       29.88F
NANTUCKET      SUNNY     56  44  64 SW9       29.87F
$$

ANZ330-335-338-340-345-350-353-355-182000-
COASTAL MARINE OBSERVATIONS


STATION/POSITION TIME  SKY/WX   TEMP    WIND        PRES    VSBY  WAVE
                                AIR SEA DIR/SP/G                  HT/PER
                 (UTC)          (F)     (DEG/KT/KT) (MB)    (MI)  (FT/S)
NY HARB ENTRANCE 1850            54 49  190/ 12/ 12 1012.8          3/13
4S FIRE IS       1803               46                N/A           3/ 8
20S FIRE ISLAND  1750               46              1014.9          3/ 7
23SW MTP         NOT AVBL
HUDSON CANYON    NOT AVBL
EXECUTION ROCKS  NOT AVBL
WESTERN LI SOUND NOT AVBL
CENTRAL LI SOUND NOT AVBL
EASTERN LI SOUND 1800            49     250/ 12/ 14   N/A
ROBBINS REEF     1800            61     180/ 16/ 18 1011.9
$$


>>>>>>>>>>>>>>>>>>>>>>>>>>>> KEY <<<<<<<<<<<<<<<<<<<<<<<<<<<
>                                                          <
>     SKY/WX - SKY CONDITION/PRESENT WEATHER               <
>     TMP    - TEMPERATURE IN FAHRENHEIT                   <
>     DP     - DEWPOINT IN FAHRENHEIT                      <
>     RH     - RELATIVE HUMIDITY IN PERCENT                <
>     WIND   - DIRECTION AND SPEED IN MPH                  <
>     PRES   - MEAN SEA LEVEL PRESSURE IN INCHES OF HG     <
>     WCI    - WIND CHILL INDEX                            <
>     VSB    - VISIBILITY IN MILES                         <
>     HX     - HEAT INDEX                                  <
>     TC     - TEMPERATURE IN CELSIUS                      <
>     VRB    - VARIABLE WIND DIRECTION                     <
>                                                          <
>>>>>>>>>>>>>>>>>>>>>>>>>>>> KEY <<<<<<<<<<<<<<<<<<<<<<<<<<<





USA.gov is the U.S. government's official web portal to all federal, state and local government web resources and services.